Home   Weather   50°00'N, 8°39'E   Past weeks
Flag for Germany

Past Weather in 50°00'N, 8°39'E, Germany — Yesterday and Last 2 Weeks

Now
73 °F

Passing clouds.


Feels Like: 76 °F
Forecast: 81 / 65 °F
Wind: 6 mph from East

Location: Frankfurt-M-Flughafen Airport

Current Time: Jul 21, 2019 at 12:13:12 am

Latest Report: Jul 20, 2019 at 11:50 pm


Visibility: N/A

Pressure: 29.98 "Hg

Humidity: 65%

Dew Point: 61 °F

Location of 50°00'N, 8°39'ELocation

Past Weather in 50°00'N, 8°39'E — Graph

°F

50°00'N, 8°39'E Temperature Yesterday

Maximum temperature yesterday: 90 °F (at 3:50 pm)
Minimum temperature yesterday: 57 °F (at 4:50 am)
Average temperature yesterday: 75 °F

High & Low Weather Summary for the Past Weeks

 TemperatureHumidityPressure
High90 °F (Jul 20, 3:50 pm)100% (Jul 12, 1:20 am)30.12 "Hg (Jul 12, 1:20 am)
Low45 °F (Jul 10, 4:20 am)13% (Jul 6, 2:20 pm)29.77 "Hg (Jul 6, 4:50 pm)
Average66 °F63%29.98 "Hg
* Reported Jul 5 10:20 pm — Jul 20 10:50 pm, 50°00'N, 8°39'E. Weather by CustomWeather, © 2019

Note: Actual official high and low records may vary slightly from our data, if they occured in-between our weather recording intervals... More about our weather records

Advertising

50°00'N, 8°39'E Weather History for the Previous 24 Hours

Scroll right to see more
 ConditionsComfort  
Time TempWeatherWind HumidityBarometerVisibility
10:50 pm
Sat, Jul 20
75 °FPassing clouds.9 mph57%29.95 "HgN/A
10:20 pm75 °FPassing clouds.12 mph57%29.95 "HgN/A
9:50 pm77 °FSprinkles. Passing clouds.12 mph57%29.95 "HgN/A
9:20 pm82 °FPassing clouds.9 mph40%29.92 "HgN/A
8:50 pm84 °FPassing clouds.13 mph35%29.89 "HgN/A
8:20 pm86 °FPassing clouds.15 mph33%29.89 "HgN/A
7:50 pm86 °FPassing clouds.18 mph33%29.86 "HgN/A
7:20 pm88 °FPassing clouds.17 mph31%29.86 "HgN/A
6:50 pm88 °FPassing clouds.16 mph33%29.86 "HgN/A
6:20 pm90 °FPassing clouds.17 mph29%29.83 "HgN/A
5:50 pm90 °FPassing clouds.18 mph29%29.83 "HgN/A
5:20 pm88 °FPassing clouds.16 mph33%29.83 "HgN/A
4:50 pm90 °FPassing clouds.17 mph31%29.83 "HgN/A
4:20 pm88 °FPassing clouds.14 mph38%29.86 "HgN/A
3:50 pm90 °FPassing clouds.10 mph36%29.86 "HgN/A
3:20 pm86 °FSunny.9 mph38%29.86 "Hg10 mi
2:50 pm88 °FSunny.15 mph35%29.89 "Hg10 mi
1:50 pm84 °FPassing clouds.12 mph40%29.89 "HgN/A
1:20 pm86 °FPassing clouds.9 mph38%29.89 "HgN/A
12:50 pm84 °FPassing clouds.10 mph43%29.89 "HgN/A
12:20 pm84 °FPassing clouds.9 mph43%29.92 "HgN/A
11:50 am82 °FPassing clouds.7 mph48%29.92 "HgN/A
11:20 am81 °FPassing clouds.8 mph48%29.92 "HgN/A
10:50 am79 °FPassing clouds.10 mph51%29.92 "HgN/A
10:20 am77 °FPassing clouds.5 mph54%29.92 "HgN/A
9:50 am77 °FSunny.2 mph54%29.92 "Hg10 mi
9:20 am73 °FPassing clouds.6 mph61%29.92 "HgN/A
8:50 am72 °FPassing clouds.3 mph65%29.95 "HgN/A
8:20 am68 °FSunny.2 mph73%29.95 "Hg10 mi
7:50 am68 °FPassing clouds.6 mph73%29.95 "HgN/A
7:20 am64 °FSunny.7 mph83%29.92 "Hg10 mi
6:50 am63 °FPassing clouds.3 mph83%29.95 "HgN/A
6:20 am59 °FSunny.3 mph94%29.95 "Hg10 mi
5:50 am59 °FSunny.2 mph94%29.95 "Hg10 mi
5:20 am59 °FClear.2 mph94%29.95 "Hg10 mi
4:50 am57 °FClear.3 mph100%29.95 "Hg10 mi
4:20 am59 °FClear.1 mph94%29.95 "Hg10 mi
3:50 am59 °FClear.1 mph94%29.95 "Hg10 mi
3:20 am59 °FClear.2 mph94%29.95 "Hg10 mi
2:50 am59 °FClear.2 mph94%29.95 "Hg10 mi
2:20 am61 °FClear.2 mph88%29.95 "Hg10 mi
1:50 am61 °FClear.2 mph88%29.98 "Hg10 mi
1:20 am63 °FClear.1 mph88%29.98 "Hg10 mi
12:50 am63 °FClear.2 mph83%29.98 "Hg10 mi
12:20 am64 °FClear.2 mph78%29.98 "Hg10 mi
Weather by CustomWeather, © 2019

See weather overview